,,,PA_Meas_PMT16A,,PR_Meas_QMR101_102,,RH_Meas_QMH101,,SR_Meas_QMS101,,TA_Meas_QMH101,,GenWind,,GenWind,
date,time,status,PA,status,PR,status,RH,status,SR,status,TA,status,DirAvg,status,SpdAvg,
2011-11-20, 00:00:04,VALID,1000.5,VALID,0,VALID,93.6917,VALID,0,VALID,23.1549,VALID,82,VALID,0.339063,
2011-11-20, 00:01:04,VALID,1000.5,VALID,0,VALID,93.7451,VALID,0,VALID,23.1354,VALID,82,VALID,0.233594,
2011-11-20, 00:02:04,VALID,1000.51,VALID,0,VALID,93.7757,VALID,0,VALID,23.1549,VALID,82,VALID,0.207422,
2011-11-20, 00:03:04,VALID,1000.49,VALID,0,VALID,93.8062,VALID,0,VALID,23.1354,VALID,82,VALID,0,
2011-11-20, 00:04:04,VALID,1000.51,VALID,0,VALID,93.8291,VALID,0,VALID,23.1354,VALID,82,VALID,0,
2011-11-20, 00:05:04,VALID,1000.52,VALID,0,VALID,93.8367,VALID,0,VALID,23.1159,VALID,82,VALID,0,
2011-11-20, 00:06:04,VALID,1000.52,VALID,0,VALID,93.852,VALID,0,VALID,23.1159,VALID,82,VALID,0,
2011-11-20, 00:07:04,VALID,1000.51,VALID,0,VALID,93.8825,VALID,0,VALID,23.1159,VALID,82,VALID,0.175781,
2011-11-20, 00:08:04,VALID,1000.49,VALID,0,VALID,93.9054,VALID,0,VALID,23.0964,VALID,82,VALID,0.347656,
2011-11-20, 00:09:04,VALID,1000.49,VALID,0,VALID,93.9435,VALID,0,VALID,23.1159,VALID,82,VALID,0.350391,
2011-11-20, 00:10:04,VALID,1000.48,VALID,0,VALID,93.9817,VALID,0,VALID,23.0964,VALID,82,VALID,0.346875,
2011-11-20, 00:11:04,VALID,1000.45,VALID,0,VALID,93.974,VALID,0,VALID,23.0769,VALID,82,VALID,0,
2011-11-20, 00:12:04,VALID,1000.41,VALID,0,VALID,94.0045,VALID,0,VALID,23.0573,VALID,82,VALID,0,
2011-11-20, 00:13:04,VALID,1000.38,VALID,0,VALID,94.0122,VALID,0,VALID,23.0964,VALID,82,VALID,0,
2011-11-20, 00:14:04,VALID,1000.39,VALID,0,VALID,94.0503,VALID,0,VALID,23.0964,VALID,82,VALID,0.1,
2011-11-20, 00:15:04,VALID,1000.37,VALID,0,VALID,94.0656,VALID,0,VALID,23.0964,VALID,82,VALID,0.371875,
2011-11-20, 00:16:04,VALID,1000.35,VALID,0,VALID,94.0808,VALID,0,VALID,23.0769,VALID,82,VALID,0.419141,
2011-11-20, 00:17:04,VALID,1000.37,VALID,0,VALID,94.0885,VALID,0,VALID,23.0573,VALID,82,VALID,0.364453,
2011-11-20, 00:18:04,VALID,1000.37,VALID,0,VALID,94.119,VALID,0,VALID,23.0573,VALID,82,VALID,0.302734,
2011-11-20, 00:19:04,VALID,1000.32,VALID,0,VALID,94.119,VALID,0,VALID,23.0573,VALID,82,VALID,0.210547,
2011-11-20, 00:20:04,VALID,1000.29,VALID,0,VALID,94.1495,VALID,0,VALID,23.0769,VALID,82,VALID,0,
2011-11-20, 00:21:04,VALID,1000.26,VALID,0,VALID,94.1648,VALID,0,VALID,23.0378,VALID,82,VALID,0,
2011-11-20, 00:22:04,VALID,1000.25,VALID,0,VALID,94.1724,VALID,0,VALID,23.0166,VALID,82,VALID,0,
2011-11-20, 00:23:04,VALID,1000.21,VALID,0,VALID,94.18,VALID,0,VALID,22.9988,VALID,82,VALID,0,
2011-11-20, 00:24:04,VALID,1000.2,VALID,0,VALID,94.1877,VALID,0,VALID,22.9776,VALID,82,VALID,0,
2011-11-20, 00:25:04,VALID,1000.18,VALID,0,VALID,94.1877,VALID,0,VALID,22.9988,VALID,82,VALID,0,
2011-11-20, 00:26:04,VALID,1000.2,VALID,0,VALID,94.2029,VALID,0,VALID,22.9988,VALID,82,VALID,0,
2011-11-20, 00:27:04,VALID,1000.17,VALID,0,VALID,94.2105,VALID,0,VALID,23.0183,VALID,82,VALID,0,
2011-11-20, 00:28:04,VALID,1000.2,VALID,0,VALID,94.2258,VALID,0,VALID,22.9776,VALID,82,VALID,0,
2011-11-20, 00:29:04,VALID,1000.19,VALID,0,VALID,94.2334,VALID,0,VALID,22.9793,VALID,82,VALID,0,
2011-11-20, 00:30:04,VALID,1000.17,VALID,0,VALID,94.2334,VALID,0,VALID,22.9793,VALID,82,VALID,0,
2011-11-20, 00:31:04,VALID,1000.18,VALID,0,VALID,94.2411,VALID,0,VALID,23.0183,VALID,82,VALID,0,
2011-11-20, 00:32:04,VALID,1000.18,VALID,0,VALID,94.2563,VALID,0,VALID,23.0378,VALID,82,VALID,0,
2011-11-20, 00:33:04,VALID,1000.18,VALID,0,VALID,94.2411,VALID,0,VALID,23.0378,VALID,82,VALID,0,
2011-11-20, 00:34:04,VALID,1000.19,VALID,0,VALID,94.2792,VALID,0,VALID,23.0183,VALID,82,VALID,0,
2011-11-20, 00:35:04,VALID,1000.19,VALID,0,VALID,94.2792,VALID,0,VALID,23.0378,VALID,82,VALID,0.395703,
2011-11-20, 00:36:04,VALID,1000.16,VALID,0,VALID,94.2868,VALID,0,VALID,23.0166,VALID,82,VALID,0.485547,
2011-11-20, 00:37:04,VALID,1000.14,VALID,0,VALID,94.2945,VALID,0,VALID,23.0573,VALID,82,VALID,0.475,
2011-11-20, 00:38:04,VALID,1000.13,VALID,0,VALID,94.3097,VALID,0,VALID,23.0769,VALID,82,VALID,0.467578,
2011-11-20, 00:39:04,VALID,1000.14,VALID,0,VALID,94.3021,VALID,0,VALID,23.0769,VALID,82,VALID,0.423828,
2011-11-20, 00:40:04,VALID,1000.1,VALID,0,VALID,94.3097,VALID,0,VALID,23.0556,VALID,82,VALID,0.377734,
2011-11-20, 00:41:04,VALID,1000.07,VALID,0,VALID,94.325,VALID,0,VALID,23.0573,VALID,82,VALID,0.566016,
2011-11-20, 00:42:04,VALID,1000.02,VALID,0,VALID,94.3326,VALID,0,VALID,23.0573,VALID,82,VALID,0.654297,
2011-11-20, 00:43:04,VALID,1000,VALID,0,VALID,94.3479,VALID,0,VALID,23.0183,VALID,82,VALID,0.690625,
2011-11-20, 00:44:04,VALID,999.976,VALID,0,VALID,94.3555,VALID,0,VALID,23.0183,VALID,82,VALID,0.853516,
2011-11-20, 00:45:04,VALID,999.979,VALID,0,VALID,94.3479,VALID,0,VALID,23.0166,VALID,56,VALID,1.30195,
2011-11-20, 00:46:04,VALID,999.98,VALID,0,VALID,94.3403,VALID,0,VALID,23.0378,VALID,40,VALID,1.7168,
2011-11-20, 00:47:04,VALID,999.997,VALID,0,VALID,94.3708,VALID,0,VALID,23.0183,VALID,42,VALID,1.54961,
2011-11-20, 00:48:04,VALID,1000,VALID,0,VALID,94.3555,VALID,0.104696,VALID,23.0378,VALID,39,VALID,1.91875,
2011-11-20, 00:49:04,VALID,1000.02,VALID,0,VALID,94.3631,VALID,0,VALID,23.0166,VALID,44,VALID,1.56094,
2011-11-20, 00:50:04,VALID,1000.03,VALID,0,VALID,94.3784,VALID,0,VALID,23.0378,VALID,31,VALID,1.02969,
2011-11-20, 00:51:04,VALID,999.989,VALID,0,VALID,94.3631,VALID,0,VALID,23.0166,VALID,36,VALID,0.819922,
2011-11-20, 00:52:04,VALID,999.982,VALID,0,VALID,94.3708,VALID,0,VALID,23.0166,VALID,38,VALID,0.552734,
2011-11-20, 00:53:04,VALID,999.948,VALID,0,VALID,94.3708,VALID,0.104696,VALID,23.0361,VALID,38,VALID,0,
2011-11-20, 00:54:04,VALID,999.914,VALID,0,VALID,94.3708,VALID,0,VALID,23.0378,VALID,38,VALID,0,
2011-11-20, 00:55:04,VALID,999.847,VALID,0,VALID,94.3708,VALID,0,VALID,23.0573,VALID,38,VALID,0,
2011-11-20, 00:56:04,VALID,999.814,VALID,0,VALID,94.3631,VALID,0,VALID,23.0573,VALID,38,VALID,0,
2011-11-20, 00:57:04,VALID,999.813,VALID,0,VALID,94.386,VALID,0,VALID,23.0361,VALID,38,VALID,0,
2011-11-20, 00:58:04,VALID,999.775,VALID,0,VALID,94.3708,VALID,0,VALID,23.0361,VALID,38,VALID,0,
2011-11-20, 00:59:04,VALID,999.751,VALID,0,VALID,94.3708,VALID,0,VALID,23.0361,VALID,38,VALID,0,
2011-11-20, 01:00:04,VALID,999.713,VALID,0,VALID,94.386,VALID,0,VALID,23.0573,VALID,38,VALID,0.459766,
2011-11-20, 01:01:04,VALID,999.725,VALID,0,VALID,94.386,VALID,0,VALID,23.0573,VALID,38,VALID,0.302734,
2011-11-20, 01:02:04,VALID,999.696,VALID,0,VALID,94.3708,VALID,0,VALID,23.0573,VALID,38,VALID,0,
2011-11-20, 01:03:04,VALID,999.688,VALID,0,VALID,94.3784,VALID,0,VALID,23.0378,VALID,38,VALID,0.245312,
2011-11-20, 01:04:04,VALID,999.699,VALID,0,VALID,94.3708,VALID,0,VALID,23.0573,VALID,38,VALID,0.544922,
2011-11-20, 01:05:04,VALID,999.714,VALID,0,VALID,94.4013,VALID,0,VALID,23.0769,VALID,38,VALID,0.417969,
2011-11-20, 01:06:04,VALID,999.661,VALID,0,VALID,94.3784,VALID,0,VALID,23.0964,VALID,38,VALID,0.359375,
2011-11-20, 01:07:04,VALID,999.696,VALID,0,VALID,94.3937,VALID,0,VALID,23.1159,VALID,38,VALID,0.316406,
2011-11-20, 01:08:04,VALID,999.677,VALID,0,VALID,94.3784,VALID,0.104696,VALID,23.0964,VALID,38,VALID,0.325391,
2011-11-20, 01:09:04,VALID,999.682,VALID,0,VALID,94.386,VALID,0,VALID,23.1159,VALID,38,VALID,0.359766,
2011-11-20, 01:10:04,VALID,999.679,VALID,0,VALID,94.4013,VALID,0,VALID,23.0964,VALID,38,VALID,0.379687,
2011-11-20, 01:11:04,VALID,999.682,VALID,0,VALID,94.4013,VALID,0,VALID,23.0964,VALID,38,VALID,0,
2011-11-20, 01:12:04,VALID,999.659,VALID,0,VALID,94.4089,VALID,0,VALID,23.0964,VALID,38,VALID,0,
2011-11-20, 01:13:04,VALID,999.631,VALID,0,VALID,94.4013,VALID,0,VALID,23.0769,VALID,38,VALID,0,
2011-11-20, 01:14:04,VALID,999.616,VALID,0,VALID,94.4165,VALID,0,VALID,23.0573,VALID,38,VALID,0,
2011-11-20, 01:15:04,VALID,999.589,VALID,0,VALID,94.4089,VALID,0,VALID,23.0573,VALID,38,VALID,0,
2011-11-20, 01:16:04,VALID,999.566,VALID,0,VALID,94.4089,VALID,0,VALID,23.0361,VALID,38,VALID,0,
2011-11-20, 01:17:04,VALID,999.597,VALID,0,VALID,94.4089,VALID,0,VALID,23.0573,VALID,38,VALID,0,
2011-11-20, 01:18:04,VALID,999.586,VALID,0,VALID,94.4013,VALID,0,VALID,23.0573,VALID,38,VALID,0,
2011-11-20, 01:19:04,VALID,999.569,VALID,0,VALID,94.386,VALID,0,VALID,23.0573,VALID,38,VALID,0,
2011-11-20, 01:20:04,VALID,999.548,VALID,0,VALID,94.4089,VALID,0,VALID,23.0769,VALID,38,VALID,0,
2011-11-20, 01:21:04,VALID,999.539,VALID,0,VALID,94.386,VALID,0,VALID,23.0964,VALID,38,VALID,0.0558594,
2011-11-20, 01:22:04,VALID,999.52,VALID,0,VALID,94.3937,VALID,0,VALID,23.0964,VALID,38,VALID,0.689062,
2011-11-20, 01:23:04,VALID,999.536,VALID,0,VALID,94.386,VALID,0,VALID,23.0946,VALID,38,VALID,0.639453,
2011-11-20, 01:24:04,VALID,999.513,VALID,0,VALID,94.4089,VALID,0,VALID,23.0964,VALID,38,VALID,0.65,
2011-11-20, 01:25:04,VALID,999.539,VALID,0,VALID,94.4165,VALID,0,VALID,23.0964,VALID,38,VALID,0.458594,
2011-11-20, 01:26:04,VALID,999.547,VALID,0,VALID,94.4165,VALID,0.104696,VALID,23.0166,VALID,22,VALID,1.08047,
2011-11-20, 01:27:04,VALID,999.532,VALID,0,VALID,94.4318,VALID,0,VALID,23.0183,VALID,20,VALID,0.566406,
2011-11-20, 01:28:04,VALID,999.503,VALID,0,VALID,94.4318,VALID,0,VALID,23.0378,VALID,20,VALID,0.307813,
2011-11-20, 01:29:04,VALID,999.519,VALID,0,VALID,94.4089,VALID,0,VALID,23.0378,VALID,20,VALID,0.834766,
2011-11-20, 01:30:04,VALID,999.476,VALID,0,VALID,94.4242,VALID,0,VALID,23.0573,VALID,20,VALID,0.539453,
2011-11-20, 01:31:04,VALID,999.432,VALID,0,VALID,94.4165,VALID,0,VALID,23.0964,VALID,20,VALID,0.335547,
2011-11-20, 01:32:04,VALID,999.402,VALID,0,VALID,94.3784,VALID,0,VALID,23.1159,VALID,69,VALID,0.678125,
2011-11-20, 01:33:04,VALID,999.375,VALID,0,VALID,94.3937,VALID,0,VALID,23.1549,VALID,83,VALID,0.716016,
2011-11-20, 01:34:04,VALID,999.372,VALID,0,VALID,94.4013,VALID,0.104696,VALID,23.1336,VALID,96,VALID,0.661719,
2011-11-20, 01:35:04,VALID,999.358,VALID,0,VALID,94.4013,VALID,0,VALID,23.1336,VALID,96,VALID,0.455859,
2011-11-20, 01:36:04,VALID,999.384,VALID,0,VALID,94.4013,VALID,0.104696,VALID,23.0946,VALID,96,VALID,0.521094,
2011-11-20, 01:37:04,VALID,999.378,VALID,0,VALID,94.4013,VALID,0.104696,VALID,23.1141,VALID,96,VALID,0.439844,
2011-11-20, 01:38:04,VALID,999.356,VALID,0,VALID,94.386,VALID,0,VALID,23.1354,VALID,96,VALID,0.173047,
2011-11-20, 01:39:04,VALID,999.358,VALID,0,VALID,94.4165,VALID,0,VALID,23.1176,VALID,96,VALID,0,
2011-11-20, 01:40:04,VALID,999.379,VALID,0,VALID,94.4089,VALID,0,VALID,23.0981,VALID,96,VALID,0.360156,
2011-11-20, 01:41:04,VALID,999.381,VALID,0,VALID,94.4089,VALID,0,VALID,23.1176,VALID,96,VALID,0.575781,
2011-11-20, 01:42:04,VALID,999.398,VALID,0,VALID,94.4013,VALID,0,VALID,23.1371,VALID,96,VALID,0.331641,
2011-11-20, 01:43:04,VALID,999.397,VALID,0,VALID,94.4089,VALID,0,VALID,23.1762,VALID,132,VALID,0.808594,
2011-11-20, 01:44:04,VALID,999.38,VALID,0,VALID,94.3784,VALID,0,VALID,23.1957,VALID,152,VALID,0.853125,
2011-11-20, 01:45:04,VALID,999.396,VALID,0,VALID,94.3937,VALID,0,VALID,23.2329,VALID,152,VALID,0.870313,
2011-11-20, 01:46:04,VALID,999.414,VALID,0,VALID,94.3708,VALID,0,VALID,23.2524,VALID,152,VALID,0.970703,
2011-11-20, 01:47:04,VALID,999.414,VALID,0,VALID,94.3784,VALID,0,VALID,23.3127,VALID,152,VALID,0.792188,
2011-11-20, 01:48:04,VALID,999.392,VALID,0,VALID,94.3784,VALID,0,VALID,23.3323,VALID,152,VALID,0.689062,
2011-11-20, 01:49:04,VALID,999.395,VALID,0,VALID,94.3937,VALID,0,VALID,23.2932,VALID,146,VALID,0.712109,
2011-11-20, 01:50:04,VALID,999.42,VALID,0,VALID,94.4013,VALID,0,VALID,23.2737,VALID,146,VALID,0.550391,
2011-11-20, 01:51:04,VALID,999.393,VALID,0,VALID,94.4013,VALID,0,VALID,23.2152,VALID,101,VALID,0.642969,
2011-11-20, 01:52:04,VALID,999.413,VALID,0,VALID,94.3708,VALID,0,VALID,23.2347,VALID,27,VALID,0.717969,
2011-11-20, 01:53:04,VALID,999.388,VALID,0,VALID,94.3784,VALID,0,VALID,23.2347,VALID,27,VALID,0.868359,
2011-11-20, 01:54:04,VALID,999.366,VALID,0,VALID,94.3784,VALID,0,VALID,23.1939,VALID,18,VALID,0.528125,
2011-11-20, 01:55:04,VALID,999.344,VALID,0,VALID,94.3631,VALID,0,VALID,23.1549,VALID,18,VALID,0.0574219,
2011-11-20, 01:56:04,VALID,999.323,VALID,0,VALID,94.3631,VALID,0,VALID,23.1549,VALID,18,VALID,0.233984,
2011-11-20, 01:57:04,VALID,999.336,VALID,0,VALID,94.3555,VALID,0,VALID,23.1354,VALID,18,VALID,0.374609,
2011-11-20, 01:58:04,VALID,999.366,VALID,0,VALID,94.3479,VALID,0,VALID,23.1159,VALID,18,VALID,0,
2011-11-20, 01:59:04,VALID,999.354,VALID,0,VALID,94.3555,VALID,0,VALID,23.0964,VALID,18,VALID,0,
2011-11-20, 02:00:04,VALID,999.331,VALID,0,VALID,94.3479,VALID,0,VALID,23.0769,VALID,18,VALID,0,
2011-11-20, 02:01:04,VALID,999.325,VALID,0,VALID,94.3403,VALID,0,VALID,23.0769,VALID,22,VALID,0.778125,
2011-11-20, 02:02:04,VALID,999.328,VALID,0,VALID,94.3326,VALID,0,VALID,23.0964,VALID,54,VALID,0.957422,
2011-11-20, 02:03:04,VALID,999.282,VALID,0,VALID,94.3174,VALID,0,VALID,23.0573,VALID,68,VALID,1.26367,
2011-11-20, 02:04:04,VALID,999.296,VALID,0,VALID,94.325,VALID,0,VALID,23.0573,VALID,64,VALID,1.15625,
2011-11-20, 02:05:04,VALID,999.24,VALID,0,VALID,94.325,VALID,0,VALID,22.9988,VALID,54,VALID,1.21016,
2011-11-20, 02:06:04,VALID,999.199,VALID,0,VALID,94.325,VALID,0,VALID,22.9793,VALID,46,VALID,1.30039,
2011-11-20, 02:07:04,VALID,999.182,VALID,0,VALID,94.3021,VALID,0,VALID,22.9208,VALID,44,VALID,1.14961,
2011-11-20, 02:08:04,VALID,999.156,VALID,0,VALID,94.3021,VALID,0,VALID,22.9208,VALID,36,VALID,1.03359,
2011-11-20, 02:09:04,VALID,999.132,VALID,0,VALID,94.3097,VALID,0,VALID,22.8818,VALID,36,VALID,1.11094,
2011-11-20, 02:10:04,VALID,999.144,VALID,0,VALID,94.2868,VALID,0,VALID,22.9013,VALID,36,VALID,1.11406,
2011-11-20, 02:11:04,VALID,999.148,VALID,0,VALID,94.2868,VALID,0,VALID,22.9403,VALID,36,VALID,1.05391,
2011-11-20, 02:12:04,VALID,999.168,VALID,0,VALID,94.3021,VALID,0,VALID,22.9403,VALID,36,VALID,0.660937,
2011-11-20, 02:13:04,VALID,999.133,VALID,0,VALID,94.3097,VALID,0,VALID,22.8995,VALID,36,VALID,0.660937,
2011-11-20, 02:14:04,VALID,999.193,VALID,0,VALID,94.3021,VALID,0,VALID,22.9013,VALID,36,VALID,0.300391,
2011-11-20, 02:15:04,VALID,999.209,VALID,0,VALID,94.3021,VALID,0,VALID,22.9013,VALID,36,VALID,0.394922,
2011-11-20, 02:16:04,VALID,999.221,VALID,0,VALID,94.3097,VALID,0,VALID,22.9225,VALID,36,VALID,0.447656,
2011-11-20, 02:17:04,VALID,999.208,VALID,0,VALID,94.3097,VALID,0,VALID,22.9013,VALID,36,VALID,0.419531,
2011-11-20, 02:18:04,VALID,999.245,VALID,0,VALID,94.3326,VALID,0,VALID,22.9013,VALID,36,VALID,0.443359,
2011-11-20, 02:19:04,VALID,999.228,VALID,0,VALID,94.3174,VALID,0,VALID,22.9013,VALID,36,VALID,0.535547,
2011-11-20, 02:20:04,VALID,999.239,VALID,0,VALID,94.3174,VALID,0,VALID,22.9013,VALID,36,VALID,0.736719,
2011-11-20, 02:21:04,VALID,999.219,VALID,0,VALID,94.325,VALID,0,VALID,22.9208,VALID,36,VALID,0.945313,
2011-11-20, 02:22:04,VALID,999.209,VALID,0,VALID,94.325,VALID,0,VALID,22.9811,VALID,36,VALID,0.972266,
2011-11-20, 02:23:04,VALID,999.175,VALID,0,VALID,94.3174,VALID,0,VALID,22.9793,VALID,45,VALID,0.96875,
2011-11-20, 02:24:04,VALID,999.128,VALID,0,VALID,94.3479,VALID,0,VALID,22.9988,VALID,53,VALID,0.862109,
2011-11-20, 02:25:04,VALID,999.095,VALID,0,VALID,94.3326,VALID,0,VALID,22.9793,VALID,53,VALID,0.620703,
2011-11-20, 02:26:04,VALID,999.063,VALID,0,VALID,94.3479,VALID,0,VALID,22.9598,VALID,53,VALID,0.470313,
2011-11-20, 02:27:04,VALID,999.058,VALID,0,VALID,94.3403,VALID,0,VALID,22.9403,VALID,53,VALID,0.273828,
2011-11-20, 02:28:04,VALID,999.048,VALID,0,VALID,94.3403,VALID,0,VALID,22.9403,VALID,53,VALID,0.120312,
2011-11-20, 02:29:04,VALID,999.039,VALID,0,VALID,94.3479,VALID,0,VALID,22.9208,VALID,53,VALID,0.0457031,
2011-11-20, 02:30:04,VALID,999.085,VALID,0,VALID,94.3403,VALID,0,VALID,22.9013,VALID,53,VALID,0,
2011-11-20, 02:31:04,VALID,999.116,VALID,0,VALID,94.3479,VALID,0,VALID,22.8818,VALID,53,VALID,0,
2011-11-20, 02:32:04,VALID,999.101,VALID,0,VALID,94.3479,VALID,0,VALID,22.8623,VALID,53,VALID,0,
2011-11-20, 02:33:04,VALID,999.127,VALID,0,VALID,94.3631,VALID,0,VALID,22.8623,VALID,53,VALID,0,
2011-11-20, 02:34:04,VALID,999.109,VALID,0,VALID,94.3555,VALID,0,VALID,22.8427,VALID,53,VALID,0,
2011-11-20, 02:35:04,VALID,999.09,VALID,0,VALID,94.3479,VALID,0,VALID,22.8232,VALID,53,VALID,0,
2011-11-20, 02:36:04,VALID,999.108,VALID,0,VALID,94.3479,VALID,0,VALID,22.8427,VALID,53,VALID,0,
2011-11-20, 02:37:04,VALID,999.092,VALID,0,VALID,94.3555,VALID,0,VALID,22.8623,VALID,79,VALID,0,
2011-11-20, 02:38:04,VALID,999.079,VALID,0,VALID,94.3631,VALID,0,VALID,22.9013,VALID,81,VALID,0,
2011-11-20, 02:39:04,VALID,999.112,VALID,0,VALID,94.3555,VALID,0,VALID,22.8818,VALID,81,VALID,0,
2011-11-20, 02:40:04,VALID,999.099,VALID,0,VALID,94.3708,VALID,0,VALID,22.903,VALID,81,VALID,0,
2011-11-20, 02:41:04,VALID,999.094,VALID,0,VALID,94.386,VALID,0,VALID,22.8623,VALID,81,VALID,0,
2011-11-20, 02:42:04,VALID,999.119,VALID,0,VALID,94.3555,VALID,0,VALID,22.903,VALID,81,VALID,0,
2011-11-20, 02:43:04,VALID,999.14,VALID,0,VALID,94.3555,VALID,0,VALID,22.9208,VALID,81,VALID,0,
2011-11-20, 02:44:04,VALID,999.155,VALID,0,VALID,94.3708,VALID,0,VALID,22.9403,VALID,81,VALID,0,
2011-11-20, 02:45:04,VALID,999.166,VALID,0,VALID,94.3555,VALID,0,VALID,22.9988,VALID,81,VALID,0.246484,
2011-11-20, 02:46:04,VALID,999.146,VALID,0,VALID,94.3403,VALID,0,VALID,23.0183,VALID,81,VALID,0.107813,
2011-11-20, 02:47:04,VALID,999.124,VALID,0,VALID,94.3555,VALID,0,VALID,23.0378,VALID,81,VALID,0,
2011-11-20, 02:48:04,VALID,999.111,VALID,0,VALID,94.3631,VALID,0,VALID,22.9988,VALID,81,VALID,0,
2011-11-20, 02:49:04,VALID,999.103,VALID,0,VALID,94.3631,VALID,0,VALID,22.9793,VALID,81,VALID,0,
2011-11-20, 02:50:04,VALID,999.097,VALID,0,VALID,94.386,VALID,0,VALID,22.9793,VALID,81,VALID,0,
2011-11-20, 02:51:04,VALID,999.091,VALID,0,VALID,94.3784,VALID,0,VALID,22.9598,VALID,81,VALID,0,
2011-11-20, 02:52:04,VALID,999.075,VALID,0,VALID,94.3784,VALID,0,VALID,22.9793,VALID,81,VALID,0.332031,
2011-11-20, 02:53:04,VALID,999.044,VALID,0,VALID,94.386,VALID,0,VALID,23.0201,VALID,152,VALID,0.770312,
2011-11-20, 02:54:04,VALID,999.049,VALID,0,VALID,94.3784,VALID,0,VALID,23.0556,VALID,164,VALID,0.713672,
2011-11-20, 02:55:04,VALID,999.024,VALID,0,VALID,94.3784,VALID,0,VALID,23.0556,VALID,164,VALID,0.712109,
2011-11-20, 02:56:04,VALID,999.014,VALID,0,VALID,94.3708,VALID,0,VALID,23.1159,VALID,164,VALID,0.660937,
2011-11-20, 02:57:04,VALID,998.971,VALID,0,VALID,94.3784,VALID,0,VALID,23.1354,VALID,151,VALID,1.32461,
2011-11-20, 02:58:04,VALID,998.962,VALID,0,VALID,94.3784,VALID,0,VALID,23.1354,VALID,141,VALID,1.21445,
2011-11-20, 02:59:04,VALID,998.911,VALID,0,VALID,94.3631,VALID,0,VALID,23.1336,VALID,141,VALID,0.745703,
2011-11-20, 03:00:04,VALID,998.904,VALID,0,VALID,94.3784,VALID,0,VALID,23.1549,VALID,141,VALID,0.375781,
2011-11-20, 03:01:04,VALID,998.916,VALID,0,VALID,94.386,VALID,0,VALID,23.1549,VALID,141,VALID,0.522656,
2011-11-20, 03:02:04,VALID,998.906,VALID,0,VALID,94.3784,VALID,0,VALID,23.1744,VALID,141,VALID,0.367188,
2011-11-20, 03:03:04,VALID,998.911,VALID,0,VALID,94.3708,VALID,0,VALID,23.1726,VALID,141,VALID,0.364844,
2011-11-20, 03:04:04,VALID,998.955,VALID,0,VALID,94.3937,VALID,0,VALID,23.1744,VALID,141,VALID,0,
2011-11-20, 03:05:04,VALID,998.981,VALID,0,VALID,94.3784,VALID,0,VALID,23.1921,VALID,141,VALID,0,
2011-11-20, 03:06:04,VALID,998.996,VALID,0,VALID,94.3708,VALID,0,VALID,23.1939,VALID,141,VALID,0.35625,
2011-11-20, 03:07:04,VALID,998.988,VALID,0,VALID,94.386,VALID,0,VALID,23.1744,VALID,141,VALID,0.289063,
2011-11-20, 03:08:04,VALID,998.984,VALID,0,VALID,94.3784,VALID,0,VALID,23.1336,VALID,141,VALID,0.201953,
2011-11-20, 03:09:04,VALID,998.994,VALID,0,VALID,94.3784,VALID,0,VALID,23.1336,VALID,141,VALID,0.250781,
2011-11-20, 03:10:04,VALID,998.979,VALID,0,VALID,94.3631,VALID,0,VALID,23.1336,VALID,141,VALID,0.084375,
2011-11-20, 03:11:04,VALID,998.96,VALID,0,VALID,94.3555,VALID,0,VALID,23.1354,VALID,141,VALID,0,
2011-11-20, 03:12:04,VALID,998.955,VALID,0,VALID,94.3784,VALID,0,VALID,23.0946,VALID,141,VALID,0,
2011-11-20, 03:13:04,VALID,998.945,VALID,0,VALID,94.3631,VALID,0,VALID,23.0573,VALID,141,VALID,0,
2011-11-20, 03:14:04,VALID,998.961,VALID,0,VALID,94.3403,VALID,0,VALID,22.9988,VALID,141,VALID,0,
2011-11-20, 03:15:04,VALID,998.994,VALID,0,VALID,94.3326,VALID,0,VALID,22.9403,VALID,141,VALID,0.341016,
2011-11-20, 03:16:04,VALID,998.987,VALID,0,VALID,94.3326,VALID,0,VALID,22.9208,VALID,141,VALID,0.0804688,
2011-11-20, 03:17:04,VALID,999.014,VALID,0,VALID,94.3174,VALID,0,VALID,22.919,VALID,141,VALID,0.411328,
2011-11-20, 03:18:04,VALID,998.997,VALID,0,VALID,94.325,VALID,0,VALID,22.9598,VALID,141,VALID,0,
2011-11-20, 03:19:04,VALID,998.987,VALID,0,VALID,94.3097,VALID,0,VALID,22.9403,VALID,141,VALID,0,
2011-11-20, 03:20:04,VALID,998.955,VALID,0,VALID,94.3097,VALID,0,VALID,22.9385,VALID,141,VALID,0,
2011-11-20, 03:21:04,VALID,998.898,VALID,0,VALID,94.2945,VALID,0.104696,VALID,22.919,VALID,141,VALID,0,
2011-11-20, 03:22:04,VALID,998.89,VALID,0,VALID,94.2868,VALID,0,VALID,22.9598,VALID,141,VALID,0.658594,
2011-11-20, 03:23:04,VALID,998.903,VALID,0,VALID,94.2868,VALID,0,VALID,22.9971,VALID,141,VALID,0.774219,
2011-11-20, 03:24:04,VALID,998.89,VALID,0,VALID,94.3021,VALID,0,VALID,23.0166,VALID,141,VALID,0.74375,
2011-11-20, 03:25:04,VALID,998.907,VALID,0,VALID,94.2792,VALID,0,VALID,23.0361,VALID,139,VALID,0.786719,
2011-11-20, 03:26:04,VALID,998.909,VALID,0,VALID,94.2868,VALID,0,VALID,23.0573,VALID,110,VALID,0.782422,
2011-11-20, 03:27:04,VALID,998.925,VALID,0,VALID,94.2868,VALID,0,VALID,23.0361,VALID,110,VALID,0.7,
2011-11-20, 03:28:04,VALID,998.94,VALID,0,VALID,94.2716,VALID,0,VALID,23.0166,VALID,102,VALID,0.576172,
2011-11-20, 03:29:04,VALID,998.903,VALID,0,VALID,94.2411,VALID,0,VALID,22.9988,VALID,102,VALID,0.435547,
2011-11-20, 03:30:04,VALID,998.912,VALID,0,VALID,94.2334,VALID,0,VALID,22.9385,VALID,95,VALID,0.442969,
2011-11-20, 03:31:04,VALID,998.922,VALID,0,VALID,94.2029,VALID,0,VALID,22.9013,VALID,359,VALID,0.936328,
2011-11-20, 03:32:04,VALID,998.894,VALID,0,VALID,94.1953,VALID,0,VALID,22.9013,VALID,353,VALID,0.8,
2011-11-20, 03:33:04,VALID,998.931,VALID,0,VALID,94.18,VALID,0,VALID,22.8818,VALID,353,VALID,0.525391,
2011-11-20, 03:34:04,VALID,998.93,VALID,0,VALID,94.1419,VALID,0,VALID,22.802,VALID,353,VALID,0.616797,
2011-11-20, 03:35:04,VALID,998.962,VALID,0,VALID,94.1495,VALID,0,VALID,22.8232,VALID,353,VALID,0.616797,
2011-11-20, 03:36:04,VALID,998.968,VALID,0,VALID,94.1343,VALID,0,VALID,22.841,VALID,13,VALID,0.744531,
2011-11-20, 03:37:04,VALID,998.991,VALID,0,VALID,94.1419,VALID,0,VALID,22.88,VALID,22,VALID,0.833594,
2011-11-20, 03:38:04,VALID,999.029,VALID,0,VALID,94.1419,VALID,0,VALID,22.9013,VALID,36,VALID,0.788281,
2011-11-20, 03:39:04,VALID,999.034,VALID,0,VALID,94.1495,VALID,0,VALID,22.9403,VALID,36,VALID,0.75,
2011-11-20, 03:40:04,VALID,999.04,VALID,0,VALID,94.1571,VALID,0,VALID,22.9598,VALID,36,VALID,0.5875,
2011-11-20, 03:41:04,VALID,999.008,VALID,0,VALID,94.1343,VALID,0,VALID,22.9598,VALID,36,VALID,0.614453,
2011-11-20, 03:42:04,VALID,999.006,VALID,0,VALID,94.1343,VALID,0,VALID,22.9403,VALID,36,VALID,0.579687,
2011-11-20, 03:43:04,VALID,999.011,VALID,0,VALID,94.1037,VALID,0,VALID,22.9208,VALID,36,VALID,0.685156,
2011-11-20, 03:44:04,VALID,998.994,VALID,0,VALID,94.0961,VALID,0,VALID,22.9013,VALID,36,VALID,0.632813,
2011-11-20, 03:45:04,VALID,998.993,VALID,0,VALID,94.0808,VALID,0,VALID,22.8818,VALID,36,VALID,0.667969,
2011-11-20, 03:46:04,VALID,998.998,VALID,0,VALID,94.0808,VALID,0,VALID,22.8623,VALID,36,VALID,0.853516,
2011-11-20, 03:47:04,VALID,999.013,VALID,0,VALID,94.0656,VALID,0,VALID,22.802,VALID,36,VALID,0.816406,
2011-11-20, 03:48:04,VALID,999.049,VALID,0,VALID,94.0503,VALID,0,VALID,22.8037,VALID,36,VALID,0.744922,
2011-11-20, 03:49:04,VALID,999.093,VALID,0,VALID,94.0122,VALID,0,VALID,22.7647,VALID,36,VALID,0.562891,
2011-11-20, 03:50:04,VALID,999.124,VALID,0,VALID,94.0351,VALID,0.104696,VALID,22.7257,VALID,36,VALID,0.553906,